Flag for San Marino Weather past 2 weeks in San Marino, San Marino

Now
59 °F

Sunny.


Feels Like: 58 °F
Forecast: 33 / 52 °F
Wind: 8 mph from North

Location: Rimini Airport

Current Time: Apr 1, 2015 at 8:40:59 PM

Latest Report: Apr 1, 2015 at 7:45 PM


Visibility: 10 mi

Pressure: 29.92 "Hg

Humidity: 39%

Dew point: 34 °F

Location of San MarinoLocation

Historic Weather in San Marino — Graph

°F

San Marino temperature yesterday

Maximum temperature yesterday: 72 °F (at 3:45 PM)
Minimum temperature yesterday: 50 °F (at 7:45 AM)
Average temperature yesterday: 63 °F

Past Weeks' High & Low Weather Summary

 TemperatureHumidityPressure
High72 °F (Mar 31, 3:45 PM)100% (Mar 19, 7:45 AM)30.27 "Hg (Mar 19, 7:45 AM)
Low36 °F (Mar 20, 6:45 AM)28% (Apr 1, 12:45 PM)29.42 "Hg (Mar 25, 1:15 PM)
Average53 °F78%29.90 "Hg
* Reported Mar 17 6:15 PM — Apr 1 7:15 PM, San Marino, Weather by CustomWeather, © 2015

Note: Actual official high and low records may vary slightly from our data, if they occured in-between our weather recording intervals... More about our weather records

Advertising

San Marino weather history for previous 24 hours

 ConditionsComfort  
Time TempWeatherWind HumidityBarometerVisibility
7:15 PM
Wed, Apr 1
61 °FSunny.14 mph29%29.89 "Hg10 mi
6:45 PM63 °FSunny.20 mph30%29.89 "Hg10 mi
6:15 PM63 °FSunny.20 mph30%29.89 "Hg10 mi
5:15 PM64 °FSunny.21 mph28%29.86 "Hg10 mi
4:45 PM64 °FSunny.21 mph28%29.86 "Hg10 mi
4:15 PM63 °FSunny.26 mph30%29.86 "Hg10 mi
3:45 PM64 °FSunny.26 mph28%29.86 "Hg10 mi
3:15 PM64 °FSunny.28 mph28%29.83 "Hg10 mi
2:45 PM64 °FSunny.28 mph28%29.83 "Hg10 mi
2:15 PM64 °FSunny.30 mph28%29.83 "Hg10 mi
1:45 PM64 °FSunny.31 mph28%29.86 "Hg10 mi
1:15 PM64 °FSunny.26 mph28%29.86 "Hg10 mi
12:45 PM64 °FSunny.28 mph28%29.86 "Hg10 mi
12:15 PM63 °FSunny.23 mph32%29.86 "Hg10 mi
11:45 AM63 °FSunny.23 mph30%29.86 "Hg10 mi
11:15 AM63 °FSunny.28 mph32%29.86 "Hg10 mi
10:45 AM61 °FSunny.30 mph34%29.86 "Hg10 mi
10:15 AM61 °FSunny.23 mph36%29.83 "Hg10 mi
9:45 AM59 °FSunny.17 mph42%29.83 "Hg10 mi
9:15 AM57 °FSunny.12 mph51%29.83 "Hg10 mi
8:45 AM54 °FSunny.7 mph72%29.83 "Hg10 mi
8:15 AM52 °FSunny.5 mph82%29.80 "Hg10 mi
7:45 AM48 °FClear.7 mph94%29.80 "Hg10 mi
Weather by CustomWeather, © 2015

See weather overviewHow to use our weather pages